List of Articles
번호 분류 제목 글쓴이 날짜 조회 수 추천 수
3338 튜닝/성능 ㅎㄷㄷ한 튜닝픽업! 1 file 너랑나랑 2018.12.12 40 0
3337 튜닝/성능 아우디 A6 눈길드리프트 너랑나랑 2018.12.12 6 0
3336 튜닝/성능 부분튜닝 람보르기니 Murcielago 직선가속 Emily 2018.12.12 5 0
3335 튜닝/성능 배기튜닝은 동력이 강해진다(?) 씹쑝쌩낑 2018.12.12 7 0
3334 튜닝/성능 금수저의 럭셔리 좌석! 씹쑝쌩낑 2018.12.12 6 0
3333 튜닝/성능 900마력 아우디 RS7 vs 람보르기니 직선가속 호두깍기인형 2018.12.12 6 0
3332 튜닝/성능 2015 포르쉐 카이엔 3.0T 배기튜닝 호두깍기인형 2018.12.12 6 0
3331 튜닝/성능 포드 머스탱 최고 튜닝버전 Doreen 2018.12.11 16 0
3330 튜닝/성능 미녀들과 함께하는 튜닝카모임! file 시원달콤콘 2018.12.11 75 0
3329 튜닝/성능 paul walker 튜닝카! 3 file 잡초인생 2018.12.11 45 0
3328 튜닝/성능 1967 Volkswagen 골프 잡초인생 2018.12.11 14 0
3327 튜닝/성능 튜닝비용이 차보다 비싼 JEEP 랭글러 제임스타임 2018.12.10 35 0
3326 튜닝/성능 토요타 코롤라 튜닝버전 KillU 2018.12.09 19 0
3325 튜닝/성능 인피니티 Q50 튜닝버전 KillU 2018.12.09 27 0
3324 튜닝/성능 Audi A6 튜닝의매력! 글래머에디터 2018.12.09 8 0
3323 튜닝/성능 Audi A4 튜닝의매력! 글래머에디터 2018.12.09 13 0
3322 튜닝/성능 마쯔다6 아텐자 튜닝버전 글래머에디터 2018.12.09 14 0
3321 튜닝/성능 해외 튜닝카 모임! 시카고섹시걸 2018.12.08 26 0
3320 튜닝/성능 상상을 초월하는 일본튜닝카들 시카고섹시걸 2018.12.08 28 0
3319 튜닝/성능 맥라렌 570S 도라에몽버전 Lucifer 2018.12.08 40 0
3318 튜닝/성능 롤스로이스 같은 롤스로이스 아닌 튜닝카 2 마르시아 2018.12.08 48 0
3317 튜닝/성능 랠리경기 중 멋진 드리프트 샤샤샤 2018.12.08 12 0
3316 튜닝/성능 람보르기니 Huracan Performante 눈길드리프트 샤샤샤 2018.12.08 9 0
3315 튜닝/성능 Panamera Turbo S vs 911 Turbo S! 샤샤샤 2018.12.08 11 0
3314 튜닝/성능 차보다 비싼 토요타 배기튜닝 file 샤샤샤 2018.12.08 36 0
3313 튜닝/성능 폭스바겐 골프7 & 혼다 시빅 wiwi 2018.12.07 19 0
3312 튜닝/성능 전세계 오직 한대뿐인 토요타 걸윙도어 튜닝카 file wiwi 2018.12.07 88 0
3311 튜닝/성능 새옷입은 메르세데스-벤츠 AMG CLA45 file wiwi 2018.12.07 127 0
3310 튜닝/성능 고마이해라!!! 어디서 타는 냄새 안나냐!!! 1 시아 2018.12.07 32 0
3309 튜닝/성능 Tiguan tuning file 시아 2018.12.07 66 0
3308 튜닝/성능 MAZDA 3 튜닝버전 모음 시아 2018.12.07 21 0
3307 튜닝/성능 현대 Coupe 튜닝버전 모음 수현 2018.12.06 24 0
3306 튜닝/성능 포르쉐 911 GT3 RS 가속테스트 수현 2018.12.06 19 0
3305 튜닝/성능 토요타 크루저 실내인터리어 튜닝 수현 2018.12.06 16 0
3304 튜닝/성능 닛산 Silvia 튜닝카 구름비 2018.12.06 17 0
3303 튜닝/성능 BMW i8 by AC Schnitzer file 구름비 2018.12.06 46 0
3302 튜닝/성능 쉐보레 카마로 튜닝버전 - 흑인튜닝문화! 구름비 2018.12.06 31 0
3301 튜닝/성능 튜닝픽업트럭의 위엄! 니키티스 2018.12.05 22 0
3300 튜닝/성능 아우디 TT MK1 블루 튜닝버전 니키티스 2018.12.05 17 0
3299 튜닝/성능 Stance Nation!스바루 WRX STI ! 수현 2018.12.05 23 0
3298 튜닝/성능 BMW X6 튜닝버전 수현 2018.12.05 30 0
3297 튜닝/성능 540마력 Hamann튜닝 BMW M4 강냉이털기 2018.12.05 24 0
3296 튜닝/성능 아우디 TT_RS_COUPE 튜닝버전 강냉이털기 2018.12.05 27 0
3295 튜닝/성능 2019 벤츠 S450 가속테스트 강냉이털기 2018.12.05 34 0
3294 튜닝/성능 1000마력 닛산 GT-R35 Daigo 가속성능테스트 Rachel 2018.12.05 24 0
3293 튜닝/성능 핑크색 깜찍한 픽업! 푸키 2018.12.04 24 0
3292 튜닝/성능 BMW X6 차키 잃어버렸다면!이렇게!ㅋ 1 바이올렛 2018.12.04 30 0
3291 튜닝/성능 테슬라 자동브레이크 테스트 흐르는눈물 2018.12.04 52 0
3290 튜닝/성능 캐딜락 SRX 34인치휠~ 흐르는눈물 2018.12.04 28 0
3289 튜닝/성능 아직 길거리도 나가지않았는데 쿵... 흐르는눈물 2018.12.04 31 0
3288 튜닝/성능 마쯔다 RX-7 슈퍼카 튜닝버전 흐르는눈물 2018.12.04 15 0
3287 튜닝/성능 Manhart튜닝 700마력 BMW MHX5700 Madonna 2018.12.04 31 0
3286 튜닝/성능 4도어를 2도어로 튜닝~ Madonna 2018.12.04 26 0
3285 튜닝/성능 `트랙터`로 변신한 짚차 wiwi 2018.12.02 19 0
3284 튜닝/성능 토요타 크라운 튜닝버전 꼬추쪼물딱 2018.12.02 24 0
3283 튜닝/성능 부가티 vs Audi S4 가속테스트 꼬추쪼물딱 2018.12.02 13 0
3282 튜닝/성능 8년전 파사트 튜닝버전~ FeelGood 2018.12.02 10 0
3281 튜닝/성능 2016 GMC SIERRA 서스펜션튜닝 Kellan 2018.12.01 56 0
3280 튜닝/성능 폭스바겐 골프7R 튜닝버전 Kellan 2018.12.01 25 0
3279 튜닝/성능 1750마력 닛산 GT-R Kellan 2018.12.01 33 0
3278 튜닝/성능 아우디 RS3 가속테스트 마르시아 2018.12.01 21 0
3277 튜닝/성능 메르세데스 벤츠 190E 마르시아 2018.12.01 22 0
3276 튜닝/성능 붉은악마! !Mazdaspeed3! KillU 2018.12.01 37 0
3275 튜닝/성능 2017 포드 F-250 튜닝버전 글래머에디터 2018.12.01 16 0
3274 튜닝/성능 랭글러니깐 성공할수 있었던 거야! 글래머에디터 2018.12.01 21 0
3273 튜닝/성능 2019 렉서스 RC350 F-Sport 튜닝 #1 글래머에디터 2018.12.01 12 0
3272 튜닝/성능 2019 렉서스 RC350 F-Sport 튜닝 #2 글래머에디터 2018.12.01 27 0
3271 튜닝/성능 2019 렉서스 RC350 F-Sport 튜닝 #3 글래머에디터 2018.12.01 16 0
3270 튜닝/성능 캠핑카로 변신한 픽업트럭 시원달콤콘 2018.11.29 24 0
3269 튜닝/성능 2018 렉서스 LC 500 튜닝버전 #1 amanda 2018.11.29 21 0
3268 튜닝/성능 2018 렉서스 LC 500 튜닝버전 #2 amanda 2018.11.29 18 0
3267 튜닝/성능 닷지 챌린저 SRT 헤드라이트 튜닝 소피아 2018.11.28 27 0
3266 튜닝/성능 할아버지가 수작업으로 만든 자동차! Rachel 2018.11.28 45 0
3265 튜닝/성능 클래식카의 드리프트~ Rachel 2018.11.28 45 0
3264 튜닝/성능 금수저의 람보르기니 튜닝 글래머에디터 2018.11.28 28 0
3263 튜닝/성능 쉐보레 콜벳 튜닝버전 마르시아 2018.11.27 35 0
3262 튜닝/성능 이색적인 포르쉐 911 GT3 튜닝버전 file Kellan 2018.11.27 46 0
3261 튜닝/성능 오프로드 차량으로 변신한 람보르기니 Urus 시카고섹시걸 2018.11.27 37 0
3260 튜닝/성능 일본튜닝문화 - Girls and Panzer #1 샤샤샤 2018.11.27 23 0
3259 튜닝/성능 일본튜닝문화 - Girls and Panzer #2 샤샤샤 2018.11.27 43 0
3258 튜닝/성능 일본튜닝문화 - Girls and Panzer #3 샤샤샤 2018.11.27 31 0
3257 튜닝/성능 일본튜닝문화 - Girls and Panzer #4 file 샤샤샤 2018.11.27 92 0
3256 튜닝/성능 토요타 크라운 튜닝버전 FeelGood 2018.11.26 58 0
3255 튜닝/성능 BMW M4 튜닝버전 wiwi 2018.11.26 82 0
3254 튜닝/성능 금수저의 BMW i8 ㅂㅐ기튜닝 file Benjamin 2018.11.25 117 0
3253 튜닝/성능 ABT 튜닝 - 아우디 R8 V10 Plus Benjamin 2018.11.25 65 0
3252 튜닝/성능 6세대 혼다 어코드 2도어 건희 2018.11.24 57 0
3251 튜닝/성능 기아 K5 튜닝버전~ 니키티스 2018.11.24 86 0
3250 튜닝/성능 인피니티 Q60 20인치 휠튜닝 니키티스 2018.11.24 60 0
3249 튜닝/성능 2018 SUZUKI JIMNY 튜닝버전 패트릭 2018.11.24 53 0
3248 튜닝/성능 심쿵! MazdaSpeed 3 ! 흐르는눈물 2018.11.23 81 0
3247 튜닝/성능 스바루 STI wagon stance 올리버 2018.11.23 58 0
3246 튜닝/성능 Audi A4 wagon 튜닝버전 Madonna 2018.11.23 42 0
3245 튜닝/성능 토요타 C-HR 걸윙도어~ Madonna 2018.11.23 41 0
3244 튜닝/성능 `위험한` 토요타 프리우스 - M61 2 file Madonna 2018.11.23 187 0
3243 튜닝/성능 새 `신발`신은 Jeep 랭글러 바이올렛 2018.11.22 62 0
3242 튜닝/성능 따뜻한 커피 한잔과 함께하는 처자 3 file 푸키 2018.11.22 181 0
3241 튜닝/성능 혼다 S2000 배기튜닝 씹쑝쌩낑 2018.11.22 56 0
3240 튜닝/성능 포드 머스탱 전기슈퍼카! 호두깍기인형 2018.11.22 39 0
3239 튜닝/성능 처자의 칠색무지개 페라리 458 1 file 호두깍기인형 2018.11.22 82 0
목록
Board Pagination Prev 1 2 3 4 5 6 7 8 9 10 ... 34 Next
/ 34
서버에 요청 중입니다. 잠시만 기다려 주십시오...